Cape Girardeau, MO

4:03 AM CDT on September 24, 2017 (GMT -0500)
Cape Girardeau Regional

Weather History for KCGI - January, 2013

Change the Weather History Date:

Sunday, January 13, 2013

  Actual Average Record
Temperature  
Mean Temperature 31 °F 33 °F  
Max Temperature 39 °F 42 °F 67 °F (1995)
Min Temperature 23 °F 24 °F -3 °F (1977)
Degree Days  
Heating Degree Days 34 32  
Month to date heating degree days 353 416  
Since 1 July heating degree days 1977 2167  
Cooling Degree Days 0 0  
Month to date cooling degree days 0 0  
Year to date cooling degree days 0 0  
Moisture  
Dew Point 28 °F    
Average Humidity 83    
Maximum Humidity 92    
Minimum Humidity 74    
Precipitation  
Precipitation 0.53 in 0.10 in 2.27 in (1971)
Month to date precipitation 2.71 1.47  
Year to date precipitation 2.71 1.47  
Sea Level Pressure  
Sea Level Pressure 30.06 in    
Wind  
Wind Speed 14 mph (North)    
Max Wind Speed 25 mph    
Max Gust Speed 33 mph    
Visibility 7 miles    
Events Rain    
T = Trace of Precipitation, MM = Missing Value Source: NWS Daily Summary

Daily Weather History Graph

Daily Weather History Graph

Search for Another Location

Airport or City:

Trip Planner

Search our weather history database for the weather conditions in past years. The results will help you decide how hot, cold, wet, or windy it might be!

Date:

Astronomy

Jan. 13, 2013 Rise Set
Actual Time 7:11 AM CST 5:02 PM CST
Civil Twilight 6:43 AM CST 5:31 PM CST
Nautical Twilight 6:11 AM CST 6:03 PM CST
Astronomical Twilight 5:39 AM CST 6:34 PM CST
Moon 8:13 AM CST (1/13) 7:36 PM CST (1/13)
Length of Visible Light 10h 48m
Length of Day
9h 51m
Waxing Crescent, 5% of the Moon is Illuminated
Jan 13
Waxing Crescent
Jan 18
First Quarter
Jan 26
Full
Feb 3
Last Quarter
Feb 10
New

Hourly Weather History & Observations

Time (CST) Temp. Windchill Dew Point Humidity Pressure Visibility Wind Dir Wind Speed Gust Speed Precip Events Conditions
12:20 AM 37.4 °F 26.4 °F 33.8 °F 87% 29.85 in 6.0 mi North 23.0 mph 28.8 mph N/A Rain Rain
12:45 AM 37.4 °F 29.8 °F 33.8 °F 87% 29.88 in 7.0 mi North 11.5 mph - 0.09 in Rain Rain
12:53 AM 36.0 °F 26.0 °F 33.1 °F 89% 29.88 in 6.0 mi North 17.3 mph 23.0 mph 0.11 in Rain Rain
1:37 AM 35.6 °F 24.5 °F 33.8 °F 93% 29.86 in 9.0 mi North 20.7 mph 26.5 mph 0.09 in Rain Light Rain
1:53 AM 36.0 °F 26.0 °F 33.1 °F 89% 29.89 in 6.0 mi North 17.3 mph 25.3 mph 0.12 in Rain Rain
2:06 AM 35.6 °F 25.9 °F 33.8 °F 93% 29.88 in 5.0 mi North 16.1 mph - 0.04 in Rain Heavy Rain
2:21 AM 35.6 °F 27.1 °F 33.8 °F 93% 29.90 in 5.0 mi NNE 12.7 mph - 0.10 in Rain Heavy Rain
2:53 AM 36.0 °F 25.6 °F 33.1 °F 89% 29.88 in 8.0 mi NNE 18.4 mph 23.0 mph 0.18 in Rain Rain
3:53 AM 37.0 °F 28.1 °F 34.0 °F 89% 29.91 in 10.0 mi North 15.0 mph 21.9 mph 0.03 in   Overcast
4:53 AM 37.0 °F 28.9 °F 34.0 °F 89% 29.93 in 10.0 mi North 12.7 mph - 0.00 in   Overcast
5:53 AM 36.0 °F 27.5 °F 33.1 °F 89% 29.97 in 7.0 mi North 12.7 mph - N/A   Overcast
6:15 AM 35.6 °F 28.6 °F 33.8 °F 93% 29.97 in 6.0 mi North 9.2 mph - N/A   Overcast
6:53 AM 35.1 °F 26.9 °F 33.1 °F 92% 29.98 in 5.0 mi North 11.5 mph - N/A   Overcast
7:53 AM 35.1 °F 25.9 °F 32.0 °F 89% 29.99 in 7.0 mi North 13.8 mph - N/A   Overcast
8:53 AM 33.1 °F 22.6 °F 30.9 °F 92% 30.02 in 6.0 mi North 16.1 mph - N/A   Overcast
9:53 AM 33.1 °F 24.4 °F 30.0 °F 89% 30.03 in 5.0 mi NNW 11.5 mph - 0.00 in   Overcast
10:19 AM 32.0 °F 20.8 °F 30.2 °F 93% 30.04 in 2.0 mi NNW 17.3 mph - 0.03 in   Overcast
10:29 AM 32.0 °F 21.2 °F 28.4 °F 87% 30.05 in 4.0 mi NNW 16.1 mph - 0.04 in   Overcast
10:53 AM 30.9 °F 18.1 °F 28.0 °F 89% 30.05 in 5.0 mi NNW 21.9 mph 28.8 mph 0.06 in Rain Light Freezing Rain
11:53 AM 30.9 °F 19.8 °F 28.0 °F 89% 30.04 in 4.0 mi North 16.1 mph - 0.02 in Rain Light Freezing Rain
12:01 PM 30.2 °F 18.5 °F 28.4 °F 93% 30.04 in 5.0 mi NNW 17.3 mph 24.2 mph 0.00 in Rain Light Freezing Rain
12:53 PM 30.9 °F 19.4 °F 27.0 °F 85% 30.03 in 9.0 mi North 17.3 mph - 0.01 in   Overcast
1:53 PM 30.0 °F 18.3 °F 26.1 °F 85% 30.09 in 8.0 mi NNW 17.3 mph - N/A   Overcast
2:53 PM 30.0 °F 20.0 °F 26.1 °F 85% 30.14 in 8.0 mi North 12.7 mph 20.7 mph N/A   Overcast
3:39 PM 30.2 °F 19.8 °F 26.6 °F 86% 30.15 in 8.0 mi NNW 13.8 mph - N/A   Overcast
3:53 PM 30.2 °F 18.9 °F 26.6 °F 86% 30.16 in 8.0 mi NNW 16.1 mph - N/A   Overcast
4:21 PM 30.2 °F 19.3 °F 24.8 °F 80% 30.18 in 9.0 mi NNW 15.0 mph - N/A   Overcast
4:53 PM 30.0 °F 20.5 °F 25.0 °F 82% 30.21 in 9.0 mi NNW 11.5 mph - N/A   Overcast
5:53 PM 28.9 °F 20.4 °F 24.1 °F 82% 30.24 in 10.0 mi NNW 9.2 mph - N/A   Scattered Clouds
6:53 PM 27.0 °F 16.1 °F 21.0 °F 78% 30.25 in 10.0 mi North 12.7 mph - N/A   Clear
7:53 PM 26.1 °F 15.6 °F 19.9 °F 78% 30.27 in 10.0 mi NNW 11.5 mph - N/A   Clear
8:53 PM 25.0 °F 14.2 °F 19.0 °F 78% 30.29 in 10.0 mi NNW 11.5 mph - N/A   Clear
9:53 PM 25.0 °F 15.5 °F 19.0 °F 78% 30.32 in 10.0 mi NNW 9.2 mph - N/A   Clear
10:53 PM 24.1 °F 13.1 °F 18.0 °F 77% 30.35 in 10.0 mi North 11.5 mph - N/A   Clear
11:53 PM 24.1 °F 13.7 °F 17.1 °F 75% 30.36 in 10.0 mi North 10.4 mph - N/A   Clear